Ardmore, OK

7:35 AM CST on December 11, 2017 (GMT -0600)
Ardmore Municipal

Weather History for KADM - May, 2013

Change the Weather History Date:

Monday, May 20, 2013

  Actual Average Record
Temperature  
Mean Temperature 74 °F -  
Max Temperature 91 °F 80 °F 96 °F (2005)
Min Temperature 64 °F 61 °F 53 °F (2000)
Cooling Degree Days 9    
Growing Degree Days 24 (Base 50)    
Moisture  
Dew Point 63 °F    
Average Humidity 67    
Maximum Humidity 84    
Minimum Humidity 55    
Precipitation  
Precipitation 0.02 in - - ()
Sea Level Pressure  
Sea Level Pressure 29.72 in    
Wind  
Wind Speed 11 mph (South)    
Max Wind Speed 15 mph    
Max Gust Speed 48 mph    
Visibility 9 miles    
Events Rain , Thunderstorm    
Averages and records for this station are not official NWS values.
T = Trace of Precipitation, MM = Missing Value Source: NWS Daily Summary

Daily Weather History Graph

Daily Weather History Graph

Search for Another Location

Airport or City:

Trip Planner

Search our weather history database for the weather conditions in past years. The results will help you decide how hot, cold, wet, or windy it might be!

Date:

Astronomy

May. 20, 2013 Rise Set
Actual Time 6:22 AM CDT 8:27 PM CDT
Civil Twilight 5:54 AM CDT 8:55 PM CDT
Nautical Twilight 5:20 AM CDT 9:29 PM CDT
Astronomical Twilight 4:43 AM CDT 10:06 PM CDT
Moon 3:47 PM CDT (5/20) 3:05 AM CDT (5/20)
Length of Visible Light 15h 01m
Length of Day
14h 04m
Waxing Gibbous, 75% of the Moon is Illuminated
May 20
Waxing Gibbous
May 24
Full
May 31
Last Quarter
Jun 8
New
Jun 16
First Quarter

Hourly Weather History & Observations

Time (CDT) Temp. Heat Index Dew Point Humidity Pressure Visibility Wind Dir Wind Speed Gust Speed Precip Events Conditions
12:15 AM 81.0 °F 82.6 °F 64.4 °F 57% 29.70 in 10.0 mi South 15.0 mph 23.0 mph N/A   Clear
12:35 AM 80.8 °F 82.4 °F 64.2 °F 57% 29.70 in 10.0 mi South 15.0 mph 23.0 mph N/A   Clear
12:55 AM 80.6 °F 82.2 °F 64.0 °F 57% 29.70 in 10.0 mi South 11.5 mph 23.0 mph N/A   Clear
1:15 AM 80.2 °F 81.8 °F 63.9 °F 57% 29.70 in 10.0 mi South 12.7 mph 17.3 mph N/A   Clear
1:35 AM 79.7 °F - 63.5 °F 58% 29.70 in 10.0 mi South 12.7 mph 18.4 mph N/A   Clear
1:55 AM 79.0 °F - 63.5 °F 59% 29.71 in 10.0 mi South 9.2 mph 17.3 mph N/A   Clear
2:15 AM 78.3 °F - 63.3 °F 60% 29.71 in 10.0 mi South 12.7 mph 17.3 mph N/A   Clear
2:35 AM 77.7 °F - 63.0 °F 60% 29.71 in 10.0 mi South 9.2 mph - N/A   Clear
3:15 AM 76.3 °F - 62.6 °F 62% 29.71 in 10.0 mi South 6.9 mph - N/A   Clear
3:35 AM 76.1 °F - 62.6 °F 63% 29.72 in 10.0 mi South 8.1 mph - N/A   Clear
3:55 AM 75.4 °F - 63.0 °F 65% 29.72 in 10.0 mi South 9.2 mph - N/A   Clear
4:35 AM 74.8 °F - 63.5 °F 68% 29.72 in 10.0 mi South 9.2 mph - N/A   Clear
4:55 AM 74.7 °F - 64.0 °F 69% 29.72 in 10.0 mi South 11.5 mph - N/A   Scattered Clouds
5:15 AM 74.5 °F - 64.4 °F 71% 29.73 in 7.0 mi South 10.4 mph 16.1 mph N/A   Mostly Cloudy
5:35 AM 74.7 °F - 64.8 °F 71% 29.73 in 10.0 mi South 5.8 mph - N/A   Overcast
5:55 AM 74.7 °F - 65.3 °F 73% 29.74 in 10.0 mi South 8.1 mph - N/A   Overcast
6:15 AM 75.0 °F - 65.3 °F 72% 29.74 in 10.0 mi South 11.5 mph - N/A   Overcast
6:35 AM 75.0 °F - 65.5 °F 72% 29.75 in 7.0 mi SSW 9.2 mph - N/A   Overcast
3:58 PM 84.2 °F 86.6 °F 66.2 °F 55% 29.89 in 10.0 mi SSE 9.2 mph - N/A Thunderstorm Scattered Clouds
6:55 PM 64.4 °F - 59.0 °F 83% 29.65 in 4.0 mi ESE 10.4 mph 13.8 mph N/A Rain , Thunderstorm Thunderstorms and Rain
7:55 PM 66.2 °F - 59.0 °F 78% 29.69 in 10.0 mi SE 12.7 mph 23.0 mph N/A Rain , Thunderstorm Light Rain
8:55 PM 69.8 °F - 59.0 °F 68% 29.70 in 10.0 mi South 12.7 mph 21.9 mph N/A Thunderstorm Clear
9:55 PM 64.4 °F - 59.0 °F 83% 29.74 in 1.8 mi South 13.8 mph 48.3 mph N/A Rain , Thunderstorm Heavy Thunderstorms and Rain
11:35 PM 66.2 °F - 61.0 °F 83% 29.76 in 10.0 mi Calm Calm - N/A   Mostly Cloudy
11:55 PM 66.7 °F - 61.7 °F 84% 29.75 in 10.0 mi NE 5.8 mph - N/A   Overcast